Regional Weather Roundup
Issued by NWS Green Bay, WI

Home | Current Version | Previous Version | Text Only | Print | Product List | Glossary On
Versions: 1 2 3 4 5 6 7 8 9 10 11 12 13 14 15 16 17 18 19 20 21 22 23 24 25 26 27 28 29 30 31 32 33 34 35 36 37 38 39 40 41 42 43 44 45 46 47 48 49 50
000
ASUS43 KGRB 201859
RWRGRB

NORTH-CENTRAL AND NORTHEAST WISCONSIN REGIONAL WEATHER ROUNDUP
NATIONAL WEATHER SERVICE GREEN BAY WI
200 PM CDT WED AUG 20 2014

WIZ005-009-010>012-018-019-202000-
NORTH CENTRAL WISCONSIN

CITY           SKY/WX    TMP DP  RH WIND       PRES   REMARKS
IRONWOOD       CLOUDY    66  61  82 N5        29.89F
MANITOWISH WTR NOT AVBL
ARBOR VITAE    NOT AVBL
EAGLE RIVER    NOT AVBL
LAND O LAKES   NOT AVBL
RHINELANDER    CLOUDY    67  58  72 N3        29.92F
PHILLIPS       CLOUDY    67  58  73 NE3       29.91S
ANTIGO         NOT AVBL
TOMAHAWK       NOT AVBL
MERRILL        NOT AVBL
$$

WIZ013-073-202000-
NORTHEAST WISCONSIN

CITY           SKY/WX    TMP DP  RH WIND       PRES   REMARKS
IRON MOUNTAIN  CLOUDY    66  59  78 N6        29.90R
MARINETTE      CLOUDY    70  63  78 SW6       29.88R
$$

WIZ017-030-035>037-045-202000-
CENTRAL WISCONSIN

CITY           SKY/WX    TMP DP  RH WIND       PRES   REMARKS
MEDFORD        NOT AVBL
WAUSAU         LGT RAIN  70  61  73 S6        29.89F
MOSINEE        CLOUDY    70  63  78 CALM      29.92F
MARSHFIELD     MOSUNNY   72  61  68 VRB5      29.91S
WISC RAPIDS    PTSUNNY   76  62  62 N5        29.90F
STEVENS POINT  NOT AVBL
WAUPACA        NOT AVBL
SHAWANO        NOT AVBL
CLINTONVILLE   NOT AVBL
$$

WIZ038-039-048-051-202000-
FOX VALLEY

CITY           SKY/WX    TMP DP  RH WIND       PRES   REMARKS
NWS GREEN BAY  CLOUDY    69  62  78 CALM      29.90S
APPLETON       PTSUNNY   70  61  73 W5        29.91S
OSHKOSH        PTSUNNY   74  66  76 SE8       29.89S
FOND DU LAC    MOSUNNY   77  66  68 NE8       29.89F
$$

WIZ022-050-052-202000-
EAST CENTRAL WISCONSIN

CITY           SKY/WX    TMP DP  RH WIND       PRES   REMARKS
STURGEON BAY   CLOUDY    66  61  82 W6        29.90S
MANITOWOC      NOT AVBL
SHEBOYGAN      PTSUNNY   76  63  64 NW8       29.89S
$$

LMZ563-521-522-541>543-202000-
LAKESHORE

STATION/POSITION TIME  TEMP    WIND        PRES    VSBY  WAVE
                       AIR SEA DIR/SP/G                  HT/PER
                 (UTC) (F)     (DEG/KT/KT) (MB)    (MI)  (FT/S)
SHEBOYGAN LKSHOR 1800   66 65  120/  6/  7 1012.6R
KEWAUNEE LKSHORE 1800   67     130/  3/  6 1011.6R
NORTHPORT PIER   1800   64     320/  9/ 11 1011.9R
N MID LAKE BUOY  1800   62 62  290/  6/  8 1011.0R         1/ 4
S GREEN BAY BUOY 1800   67     VRB  4      1013.2R
SISTER BAY LKSHO 1800   70     330/  7/  8   N/A
STURGEON BAY CG  1800   68 68  130/  4     1012.4      6   1
CHAMBERS ISLAND  1800   69     160/  2/  5 1011.9S
MENOMINEE LKSHOR 1800   66     140/  7/  8 1012.5R
$$



USA.gov is the U.S. government's official web portal to all federal, state and local government web resources and services.